Regional Weather Roundup
Issued by NWS Spokane, WA

Home | Current Version | Previous Version | Text Only | Print | Product List | Glossary On
Versions: 1 2 3 4 5 6 7 8 9 10 11 12 13 14 15 16 17 18 19 20 21 22 23 24 25 26 27 28 29 30 31 32 33 34 35 36 37 38 39 40 41 42 43 44 45 46 47 48 49 50
000
NZUS01 KOTX 191805
RWROTX
EASTERN WASHINGTON/NORTHERN IDAHO ROUNDUP
NATIONAL WEATHER SERVICE, SPOKANE WA
1100 AM PDT FRI SEP 19 2014

Note: "fair" indicated few or no clouds below 12,000 feet with no
significant weather and/or obstructions to visibility.

...NORTHEAST WASHINGTON AND NORTHERN IDAHO PANHANDLE...

CITY           SKY/WX    TMP DP  RH WIND       PRES   REMARKS
SPOKANE INTL   MOSUNNY   67  49  52 S9        30.06R
SPOKANE DOWNTO SUNNY     68  49  50 SW7       30.06S
COEUR D ALENE  PTSUNNY   66  52  59 S8        30.06S
DEER PARK      MOSUNNY   66  50  56 S7        30.06R
SANDPOINT      CLOUDY    64  50  59 SW3       30.05R

...SOUTHEAST WASHINGTON AND SOUTHERN IDAHO PANHANDLE...

CITY           SKY/WX    TMP DP  RH WIND       PRES   REMARKS
WALLA WALLA    SUNNY     73  50  44 SW15G25   30.07F
PULLMAN/MOSCOW MOSUNNY   69  48  47 SW14      30.10S
LEWISTON       SUNNY     76  49  38 N7        30.05S
LOWELL           N/A     73  52  47 CALM      30.06F

...COLUMBIA BASIN...

CITY           SKY/WX    TMP DP  RH WIND       PRES   REMARKS
EPHRATA        SUNNY     75  50  41 S8        30.00S
MOSES LAKE     MOSUNNY   74  51  44 S8        30.02R
TRI CITIES     SUNNY     75  52  44 S9        30.04R
HERMISTON      SUNNY     75  51  43 W10       30.04F
PENDLETON      SUNNY     72  49  44 W14       30.07S

...EAST SLOPES CASCADES...

CITY           SKY/WX    TMP DP  RH WIND       PRES   REMARKS
THE DALLES     SUNNY     75  53  46 NW13      30.04S
YAKIMA         SUNNY     73  50  44 E7        30.03S
ELLENSBURG     SUNNY     74  49  41 NW14      30.04S
WENATCHEE      SUNNY     75  48  38 W5        30.00S
OMAK           PTSUNNY   73  48  41 CALM      29.98S

...SOUTHERN BRITISH COLUMBIA...

CITY           SKY/WX    TMP DP  RH WIND       PRES   REMARKS

...WESTERN MONTANA...

CITY           SKY/WX    TMP DP  RH WIND       PRES   REMARKS
MISSOULA       CLOUDY    71  45  39 W8        30.05S

...NEIGHBORING CITIES...

CITY           SKY/WX    TMP DP  RH WIND       PRES   REMARKS
SEATTLE        PTSUNNY   70  57  63 S9        30.11S



USA.gov is the U.S. government's official web portal to all federal, state and local government web resources and services.